DLH408 EDDF-KRDU

Flight info

Callsign DLH408
Flight time N/A
Altitude 36000
Route OBOKA5G/25C OBOKA Z29 TORNU DCT BATAK DCT GALSO Q63 ERING L179 UGBET Q60 OKSAW DCT BIBPE DCT FELCA DCT FADZU DCT OFSOX DCT SLANY DCT TOBOR/M082F380 NATC ELSIR/N0456F380 N398B TUSKY/N0463F400 DCT FOXBO DCT RIFLE Q167 ZJAAY TAQLE3
Aircraft A333/H-SDE3GHIJ2J3J5M1RVWXY/LB2D1

Departure

Time 2026-05-06 18:44
Airport Frankfurt Main Airport (EDDF)

Arrival

Time N/A
Airport Raleigh-Durham International Airport (KRDU)
Time Latitude Longitude Altitude Speed Heading
2026-05-06 18:09 50.04727 8.56273 369 ft 0 kts 340°
2026-05-06 18:28 50.04726 8.56273 369 ft 0 kts 340°
2026-05-06 18:30 50.04725 8.56274 369 ft 0 kts 340°
2026-05-06 18:30 50.04718 8.56278 369 ft 2 kts 340°
2026-05-06 18:31 50.04704 8.56287 369 ft 2 kts 340°
2026-05-06 18:31 50.04690 8.56295 369 ft 2 kts 340°
2026-05-06 18:31 50.04676 8.56303 369 ft 2 kts 340°
2026-05-06 18:31 50.04666 8.56308 369 ft 1 kts 340°
2026-05-06 18:32 50.04654 8.56318 369 ft 2 kts 308°
2026-05-06 18:32 50.04647 8.56338 369 ft 2 kts 276°
2026-05-06 18:32 50.04647 8.56358 369 ft 0 kts 251°
2026-05-06 18:32 50.04649 8.56365 369 ft 0 kts 249°
2026-05-06 18:34 50.04649 8.56364 369 ft 0 kts 249°
2026-05-06 18:35 50.04628 8.56275 368 ft 14 kts 250°
2026-05-06 18:35 50.04587 8.56103 367 ft 17 kts 249°
2026-05-06 18:35 50.04523 8.55958 365 ft 16 kts 204°
2026-05-06 18:35 50.04412 8.55911 364 ft 18 kts 187°
2026-05-06 18:36 50.04282 8.55955 361 ft 21 kts 180°
2026-05-06 18:36 50.04160 8.55936 359 ft 1 kts 162°
2026-05-06 18:36 50.04126 8.55954 358 ft 13 kts 161°
2026-05-06 18:36 50.04081 8.56078 357 ft 19 kts 74°
2026-05-06 18:37 50.04139 8.56328 359 ft 30 kts 71°
2026-05-06 18:37 50.04191 8.56547 362 ft 32 kts 70°
2026-05-06 18:37 50.04293 8.56976 367 ft 30 kts 70°
2026-05-06 18:37 50.04364 8.57267 370 ft 27 kts 70°
2026-05-06 18:38 50.04428 8.57541 373 ft 25 kts 70°
2026-05-06 18:38 50.04488 8.57789 374 ft 25 kts 70°
2026-05-06 18:38 50.04551 8.58058 376 ft 28 kts 70°
2026-05-06 18:38 50.04623 8.58351 375 ft 28 kts 69°
2026-05-06 18:39 50.04637 8.58411 375 ft 0 kts 69°
2026-05-06 18:39 50.04640 8.58423 375 ft 6 kts 69°
2026-05-06 18:39 50.04656 8.58491 375 ft 6 kts 73°
2026-05-06 18:40 50.04617 8.58574 373 ft 0 kts 157°
2026-05-06 18:42 50.04594 8.58589 373 ft 8 kts 159°
2026-05-06 18:42 50.04519 8.58631 372 ft 7 kts 173°
2026-05-06 18:42 50.04484 8.58576 372 ft 7 kts 242°
2026-05-06 18:43 50.04478 8.58555 373 ft 0 kts 250°
2026-05-06 18:43 50.04477 8.58549 373 ft 5 kts 251°
2026-05-06 18:43 50.04401 8.58225 374 ft 61 kts 250°
2026-05-06 18:43 50.04183 8.57295 366 ft 119 kts 247°
2026-05-06 18:44 50.03834 8.55849 357 ft 165 kts 252°
2026-05-06 18:44 50.03426 8.54206 962 ft 157 kts 252°
2026-05-06 18:44 50.03038 8.52639 1531 ft 161 kts 252°
2026-05-06 18:44 50.02630 8.50959 2000 ft 172 kts 252°
2026-05-06 18:45 50.02480 8.49137 2261 ft 176 kts 287°
2026-05-06 18:45 50.02781 8.47250 2494 ft 188 kts 281°
2026-05-06 18:45 50.02978 8.45148 2644 ft 207 kts 277°
2026-05-06 18:45 50.02931 8.43596 2776 ft 224 kts 262°
2026-05-06 18:46 50.02530 8.40264 3280 ft 245 kts 262°
2026-05-06 18:46 50.02216 8.37594 3773 ft 257 kts 262°
2026-05-06 18:46 50.01889 8.34852 4528 ft 258 kts 261°
2026-05-06 18:46 50.01556 8.32068 5077 ft 268 kts 260°
2026-05-06 18:47 50.01269 8.29256 6004 ft 260 kts 269°
2026-05-06 18:47 50.01633 8.26645 7017 ft 248 kts 292°
2026-05-06 18:47 50.02322 8.24271 7944 ft 237 kts 292°
2026-05-06 18:47 50.02987 8.21953 8626 ft 232 kts 293°
2026-05-06 18:48 50.03647 8.19679 8974 ft 231 kts 293°
2026-05-06 18:48 50.04318 8.17369 9213 ft 238 kts 293°
2026-05-06 18:48 50.05014 8.14975 9636 ft 249 kts 293°
2026-05-06 18:48 50.05755 8.12463 9891 ft 265 kts 297°
2026-05-06 18:49 50.06890 8.10067 10140 ft 284 kts 308°
2026-05-06 18:49 50.08154 8.07634 10403 ft 300 kts 307°
2026-05-06 18:49 50.09512 8.05002 10620 ft 318 kts 307°
2026-05-06 18:49 50.10925 8.02258 10818 ft 336 kts 308°
2026-05-06 18:50 50.12421 7.99350 11056 ft 352 kts 308°
2026-05-06 18:50 50.13974 7.96326 11596 ft 358 kts 308°
2026-05-06 18:50 50.15529 7.93297 12247 ft 360 kts 308°
2026-05-06 18:50 50.17095 7.90241 12768 ft 365 kts 308°
2026-05-06 18:51 50.18679 7.87147 13346 ft 368 kts 308°
2026-05-06 18:51 50.20260 7.84059 13909 ft 371 kts 308°
2026-05-06 18:51 50.21870 7.80909 14444 ft 374 kts 308°
2026-05-06 18:51 50.23494 7.77724 14966 ft 378 kts 308°
2026-05-06 18:52 50.25225 7.74589 15473 ft 382 kts 317°
2026-05-06 18:52 50.27449 7.72366 15965 ft 387 kts 335°
2026-05-06 18:52 50.29948 7.70719 16468 ft 390 kts 336°
2026-05-06 18:52 50.32457 7.69022 16942 ft 393 kts 335°
2026-05-06 18:53 50.34976 7.67307 17410 ft 396 kts 335°
2026-05-06 18:53 50.37481 7.65592 17865 ft 399 kts 335°
2026-05-06 18:53 50.40065 7.63819 18320 ft 403 kts 335°
2026-05-06 18:53 50.42614 7.62066 18756 ft 406 kts 335°
2026-05-06 18:54 50.45224 7.60271 19216 ft 409 kts 335°
2026-05-06 18:54 50.47841 7.58467 19653 ft 412 kts 335°
2026-05-06 18:54 50.50471 7.56652 20088 ft 414 kts 335°
2026-05-06 18:54 50.53130 7.54815 20502 ft 417 kts 335°
2026-05-06 18:55 50.55786 7.52922 20916 ft 418 kts 330°
2026-05-06 18:55 50.58234 7.50498 21289 ft 420 kts 325°
2026-05-06 18:55 50.60698 7.47973 21698 ft 423 kts 326°
2026-05-06 18:55 50.63155 7.45454 22086 ft 425 kts 326°
2026-05-06 18:56 50.65657 7.42889 22483 ft 428 kts 326°
2026-05-06 18:56 50.68138 7.40341 22831 ft 431 kts 326°
2026-05-06 18:56 50.70694 7.37716 23190 ft 433 kts 326°
2026-05-06 18:56 50.73166 7.35056 23515 ft 434 kts 320°
2026-05-06 18:57 50.75217 7.31464 23858 ft 433 kts 301°
2026-05-06 18:57 50.76605 7.27364 24225 ft 433 kts 295°
2026-05-06 18:57 50.78010 7.23036 24562 ft 436 kts 295°
2026-05-06 18:57 50.79401 7.18753 24895 ft 439 kts 295°
2026-05-06 18:58 50.80798 7.14455 25233 ft 441 kts 296°
2026-05-06 18:58 50.82199 7.10134 25560 ft 444 kts 296°
2026-05-06 18:58 50.83607 7.05788 25860 ft 446 kts 296°